Salina, KS

5:24 PM CDT on September 23, 2017 (GMT -0500)
Salina Municipal

Weather History for KSLN - March, 2013

Change the Weather History Date:

Tuesday, March 26, 2013

  Actual Average Record
Temperature  
Mean Temperature 31 °F 49 °F  
Max Temperature 46 °F 61 °F 86 °F (1910)
Min Temperature 15 °F 37 °F 0 °F (1955)
Degree Days  
Heating Degree Days 34 16  
Month to date heating degree days 667 530  
Since 1 July heating degree days 4289 4371  
Cooling Degree Days 0 0  
Month to date cooling degree days 0 0  
Year to date cooling degree days 0 0  
Moisture  
Dew Point 19 °F    
Average Humidity 66    
Maximum Humidity 88    
Minimum Humidity 43    
Precipitation  
Precipitation 0.00 in 0.09 in 0.71 in (1959)
Month to date precipitation 0.40 1.93  
Year to date precipitation 3.67 3.73  
Sea Level Pressure  
Sea Level Pressure 30.36 in    
Wind  
Wind Speed 7 mph (SSE)    
Max Wind Speed 17 mph    
Max Gust Speed 22 mph    
Visibility 10 miles    
Events      
T = Trace of Precipitation, MM = Missing Value Source: NWS Daily Summary

Daily Weather History Graph

Daily Weather History Graph

Search for Another Location

Airport or City:

Trip Planner

Search our weather history database for the weather conditions in past years. The results will help you decide how hot, cold, wet, or windy it might be!

Date:

Astronomy

Mar. 26, 2013 Rise Set
Actual Time 7:24 AM CDT 7:48 PM CDT
Civil Twilight 6:57 AM CDT 8:15 PM CDT
Nautical Twilight 6:26 AM CDT 8:46 PM CDT
Astronomical Twilight 5:54 AM CDT 9:18 PM CDT
Moon 7:26 PM CDT (3/26) 6:41 AM CDT (3/26)
Length of Visible Light 13h 17m
Length of Day
12h 24m
Waxing Gibbous, 99% of the Moon is Illuminated
Mar 26
Waxing Gibbous
Mar 27
Full
Apr 2
Last Quarter
Apr 10
New
Apr 18
First Quarter

Hourly Weather History & Observations

Time (CDT) Temp. Windchill Dew Point Humidity Pressure Visibility Wind Dir Wind Speed Gust Speed Precip Events Conditions
12:53 AM 23.0 °F 17.0 °F 16.0 °F 74% 30.43 in 10.0 mi NW 4.6 mph - N/A   Clear
1:53 AM 21.0 °F 13.4 °F 15.1 °F 78% 30.44 in 10.0 mi WNW 5.8 mph - N/A   Clear
2:53 AM 19.9 °F 11.1 °F 14.0 °F 78% 30.43 in 10.0 mi WNW 6.9 mph - N/A   Clear
3:53 AM 19.9 °F 12.1 °F 14.0 °F 78% 30.43 in 10.0 mi West 5.8 mph - N/A   Clear
4:53 AM 19.0 °F - 12.9 °F 77% 30.43 in 10.0 mi Calm Calm - N/A   Clear
5:53 AM 19.0 °F - 12.9 °F 77% 30.43 in 10.0 mi Calm Calm - N/A   Clear
6:53 AM 18.0 °F - 12.0 °F 78% 30.44 in 10.0 mi Calm Calm - N/A   Clear
7:53 AM 16.0 °F - 12.0 °F 84% 30.46 in 10.0 mi Calm Calm - N/A   Clear
8:53 AM 21.9 °F - 17.1 °F 82% 30.46 in 10.0 mi Calm Calm - N/A   Clear
9:53 AM 28.9 °F - 19.0 °F 67% 30.46 in 10.0 mi Calm Calm - N/A   Clear
10:53 AM 32.0 °F 28.7 °F 17.1 °F 54% 30.45 in 10.0 mi SW 3.5 mph - 0.00 in   Clear
11:53 AM 35.1 °F 30.1 °F 19.0 °F 52% 30.43 in 10.0 mi Variable 5.8 mph - N/A   Clear
12:53 PM 39.0 °F 34.0 °F 19.0 °F 45% 30.41 in 10.0 mi SSW 6.9 mph - N/A   Clear
1:53 PM 39.9 °F 36.7 °F 21.0 °F 47% 30.38 in 10.0 mi SSE 4.6 mph - N/A   Clear
2:53 PM 43.0 °F 38.2 °F 21.9 °F 43% 30.34 in 10.0 mi South 8.1 mph - N/A   Clear
3:53 PM 45.0 °F 40.1 °F 24.1 °F 44% 30.30 in 10.0 mi SSE 9.2 mph 17.3 mph N/A   Clear
4:53 PM 46.0 °F 39.9 °F 26.1 °F 46% 30.27 in 10.0 mi SE 13.8 mph 19.6 mph N/A   Clear
5:53 PM 44.1 °F 37.7 °F 26.1 °F 49% 30.26 in 10.0 mi SE 12.7 mph - N/A   Clear
6:53 PM 44.1 °F 37.7 °F 24.1 °F 45% 30.27 in 10.0 mi SE 12.7 mph - N/A   Clear
7:53 PM 41.0 °F 34.7 °F 24.1 °F 51% 30.25 in 10.0 mi SE 10.4 mph - N/A   Clear
8:53 PM 39.0 °F 32.3 °F 26.1 °F 60% 30.24 in 10.0 mi ESE 10.4 mph - N/A   Clear
9:53 PM 36.0 °F 27.1 °F 25.0 °F 64% 30.23 in 10.0 mi SE 13.8 mph - N/A   Clear
10:53 PM 35.1 °F 26.4 °F 24.1 °F 64% 30.24 in 10.0 mi ESE 12.7 mph - N/A   Clear
11:53 PM 34.0 °F 24.6 °F 24.1 °F 67% 30.22 in 10.0 mi SE 13.8 mph - N/A   Clear